Theta_e
342 343 345 348 348 348 345 344 344 344 344 344 344 343 345 344 345 347 349 348 348 348 348 347 347 349 347 349 348 348 347 346 347 347 345 344 343 342 342 343 342 341 342 342 346 347 347 348 347 347 347 346 346 348 349 349 349 349 349 348 348 348 347 347 346 346 345 345 346 345 344 344 345 344 344 342 341 341 342 342 340 336 335 338 339
340 344 344 346 348 348 346 344 343 343 344 344 343 343 344 344 344 347 348 348 348 348 349 348 348 348 348 348 347 347 347 346 346 344 343 344 343 342 341 341 341 341 342 342 343 344 346 346 346 347 347 346 345 347 348 348 348 347 347 346 347 346 347 347 347 346 346 345 344 344 345 346 345 346 345 345 345 344 341 341 340 335 335 340 342
343 344 344 346 347 348 346 345 343 343 343 343 342 342 343 344 345 348 349 348 348 348 348 347 348 348 347 347 346 346 345 345 344 344 343 342 341 340 340 341 340 341 342 341 341 342 344 344 345 345 344 344 345 346 346 346 346 346 345 345 344 344 344 344 345 346 345 344 343 344 344 345 344 345 345 345 347 347 344 343 342 341 339 344 344
341 344 345 346 347 347 345 344 344 343 343 343 342 342 342 346 348 349 348 348 348 348 348 347 347 346 346 345 345 345 345 344 342 341 341 341 341 339 338 339 339 340 341 340 340 341 341 342 342 342 342 342 342 345 345 345 345 344 344 344 344 344 344 344 345 343 342 343 343 341 340 338 341 344 345 346 346 345 342 343 342 343 343 343 343
342 344 345 345 345 345 344 344 343 343 343 343 342 341 342 347 349 348 348 347 347 348 348 347 347 346 346 345 345 345 345 343 342 341 341 342 341 340 339 339 338 338 339 340 340 339 340 340 341 341 341 341 342 343 344 344 344 344 343 344 344 343 344 345 346 345 344 344 342 340 337 337 338 342 343 344 344 342 341 341 342 342 342 341 342
343 343 344 344 343 343 344 343 343 343 343 342 341 341 342 343 347 346 346 346 348 347 347 346 346 345 344 344 343 344 344 342 341 340 339 343 342 342 341 339 339 340 339 339 338 339 339 339 339 340 340 340 340 341 342 343 343 343 343 343 344 344 345 345 345 344 343 342 341 337 337 337 337 339 343 344 343 341 341 341 342 341 341 341 341
343 343 343 344 344 343 344 345 343 343 343 342 341 341 342 343 345 346 345 348 347 347 347 346 346 347 346 345 344 343 342 341 339 339 339 339 343 343 341 339 339 339 340 340 340 339 339 338 339 338 339 339 339 340 341 342 342 342 343 343 343 343 343 344 343 342 341 339 335 336 336 336 337 337 340 343 342 341 339 340 340 339 339 339 338
342 344 344 343 343 342 344 344 343 343 342 342 342 342 342 344 347 346 345 346 347 347 346 346 345 344 343 342 341 341 341 341 340 339 338 343 341 341 341 338 337 338 339 339 338 338 338 338 339 339 340 340 340 340 341 341 342 342 342 342 342 343 343 344 343 342 341 337 335 335 334 335 336 337 340 341 341 340 339 339 338 338 337 336 336
341 343 343 343 343 342 344 344 343 343 343 342 342 343 341 342 345 345 344 345 347 346 346 346 343 342 342 342 342 341 339 338 338 338 338 339 339 340 340 340 340 340 339 338 338 339 338 338 338 338 339 339 340 339 339 339 341 341 341 342 342 342 342 343 341 339 336 333 333 332 332 332 332 333 338 339 339 338 337 335 335 336 338 337 335
340 342 343 342 342 341 344 344 343 343 343 342 342 342 342 342 344 344 344 345 346 346 345 345 343 342 341 341 340 340 339 338 338 337 337 338 339 339 340 339 341 341 341 340 339 339 339 340 339 339 340 339 339 339 339 339 340 341 341 341 341 341 342 342 341 336 331 330 331 333 334 336 331 332 334 337 336 336 335 334 335 336 335 335 333
343 344 343 343 344 341 344 343 343 343 343 343 342 342 341 340 340 341 344 346 346 346 345 345 343 341 340 339 339 338 338 338 338 338 338 338 339 339 341 341 341 341 341 339 338 339 339 339 339 340 339 340 339 339 339 339 340 340 341 340 340 340 341 339 335 330 330 330 330 331 336 336 329 331 336 335 335 335 335 335 332 332 332 332 332
342 343 343 343 345 341 344 344 343 342 342 342 342 341 340 340 340 340 340 342 343 343 344 344 344 341 340 338 337 337 337 337 336 335 335 338 338 342 342 342 341 340 339 339 339 340 340 340 340 340 340 340 339 339 339 339 340 340 340 340 340 341 338 337 331 328 328 328 329 328 328 328 328 332 335 334 335 334 332 331 332 332 332 331 330
341 342 343 343 343 340 344 344 344 342 342 342 342 341 340 339 339 339 341 340 341 341 344 344 343 341 339 338 337 336 336 336 337 337 337 338 339 339 338 341 341 341 340 339 339 339 340 339 339 339 339 339 338 339 339 339 339 339 339 339 339 338 336 334 331 329 328 328 328 327 327 326 329 335 334 335 333 333 331 333 332 332 331 330 329
342 342 343 343 343 344 339 343 344 344 343 342 341 341 340 340 339 340 339 339 339 339 343 343 342 342 339 338 337 336 336 337 336 334 338 338 339 339 342 342 342 341 340 339 339 338 338 338 338 338 338 338 338 338 339 339 338 338 338 339 338 337 333 331 332 328 328 327 327 327 328 330 331 335 333 333 333 332 332 331 330 330 329 328 328
342 342 342 343 342 341 341 339 342 342 343 342 342 340 340 340 340 340 339 338 338 337 337 338 340 340 340 339 338 337 336 336 336 336 337 338 337 338 338 340 341 341 339 339 339 338 338 338 339 338 338 338 339 339 339 338 338 337 337 337 337 335 332 331 331 328 328 328 326 328 328 329 335 333 332 332 332 332 331 329 326 327 327 327 328
344 342 342 342 342 342 341 341 336 337 341 342 342 341 340 340 340 340 340 341 342 338 337 338 340 340 340 339 338 337 337 337 337 338 338 338 337 337 337 338 339 339 339 338 338 337 338 338 337 337 336 337 338 339 338 337 337 337 337 336 334 334 331 329 329 327 327 326 326 326 326 329 333 330 328 329 331 331 330 328 326 327 326 326 325
343 342 342 342 342 341 341 340 335 332 333 336 338 340 342 344 344 343 342 341 342 343 338 340 339 339 339 339 338 338 337 337 339 339 337 337 338 337 339 337 338 337 337 337 337 336 337 336 336 335 335 336 337 338 338 337 336 336 335 335 333 332 330 328 329 328 327 328 328 327 326 327 333 329 329 332 330 330 328 327 325 324 324 325 325
343 342 341 342 341 341 340 340 337 338 336 333 333 337 339 341 340 341 342 341 341 342 343 342 341 340 340 338 338 338 338 336 338 340 340 339 339 338 338 339 339 338 337 337 337 336 336 336 335 335 335 335 336 336 337 336 335 334 334 333 332 330 329 329 329 327 328 330 327 327 327 333 332 327 330 329 330 328 325 325 326 325 325 324 323
340 341 343 341 340 340 340 340 339 339 338 337 336 333 334 337 338 339 340 340 339 339 339 337 338 338 336 334 333 333 332 334 338 337 336 335 335 336 337 338 337 337 337 336 335 335 335 335 335 334 334 335 335 335 334 334 333 332 332 331 329 327 326 329 329 329 328 327 327 326 326 333 330 329 328 327 329 328 325 325 324 325 323 323 323
338 338 340 341 341 340 340 339 339 338 338 337 337 335 330 331 334 336 336 336 336 335 334 333 332 330 330 330 329 328 326 327 327 329 331 332 331 330 335 336 335 335 335 335 335 335 334 334 334 334 334 335 335 333 333 333 332 331 331 328 325 324 329 329 328 328 327 323 323 322 329 333 329 329 329 329 328 326 323 322 324 323 322 322 322
338 337 337 338 340 341 341 339 339 338 337 338 338 337 330 329 328 327 330 332 332 331 330 325 324 324 326 325 327 329 328 327 328 330 327 326 324 326 333 335 336 336 335 334 335 335 334 334 334 335 334 332 330 329 328 329 329 329 328 325 319 325 329 329 328 327 326 324 323 326 331 333 329 329 327 326 325 325 323 323 322 322 323 322 321
332 334 336 338 338 340 339 340 338 338 336 338 340 338 334 334 335 332 331 327 325 325 328 330 332 327 325 326 330 329 328 328 327 333 328 327 323 322 326 332 334 333 335 334 334 334 334 333 333 332 332 331 325 322 320 323 326 327 324 320 321 326 328 329 330 327 325 325 324 327 333 334 330 328 327 328 327 326 324 323 322 322 321 321 321
330 332 335 336 337 338 339 338 337 338 336 336 340 337 336 335 335 334 334 330 331 330 331 331 331 331 328 330 329 328 329 327 326 330 329 324 323 322 325 329 332 331 333 334 333 333 333 332 331 330 330 329 322 322 324 323 319 320 318 321 323 326 328 327 326 326 325 326 325 328 332 330 328 327 328 329 328 325 323 323 322 322 320 319 319
331 331 334 337 337 336 338 338 337 337 335 333 337 338 335 335 334 333 333 333 333 332 332 332 331 332 331 331 328 327 329 326 327 329 329 325 322 321 323 325 326 325 326 328 330 332 332 331 329 328 326 323 323 325 324 325 323 323 322 325 326 324 324 324 325 324 324 327 326 325 330 331 328 327 327 327 326 325 323 322 322 321 321 321 320
329 332 333 335 335 336 337 337 337 337 336 333 332 332 334 334 334 333 333 330 332 330 330 330 331 333 331 330 328 325 328 327 324 325 325 327 325 322 322 324 324 322 322 324 325 324 323 322 319 319 320 323 324 321 321 322 321 323 322 321 321 322 322 322 324 324 324 326 324 324 329 331 330 329 329 328 327 326 323 323 323 322 322 321 322
329 329 330 333 334 335 337 336 337 336 335 333 332 331 334 332 334 333 332 331 332 331 330 331 330 330 329 330 328 325 326 324 323 322 324 326 326 325 325 325 325 323 322 324 323 324 322 323 321 322 322 323 322 321 320 320 321 320 320 320 320 320 320 321 322 324 324 324 323 322 327 331 331 330 330 329 328 327 326 325 325 324 323 321 320
328 328 330 331 333 334 336 337 336 335 335 334 333 331 331 334 335 333 332 332 331 331 330 330 331 330 329 328 327 325 325 324 325 324 324 326 325 326 325 325 325 323 322 322 322 322 321 322 322 323 320 320 320 320 320 320 319 319 320 320 320 320 319 320 320 322 321 322 321 320 325 329 331 331 331 330 330 329 327 325 324 324 325 323 322
327 328 328 329 332 333 335 337 336 336 335 334 333 331 332 333 334 332 333 330 330 329 330 331 331 329 328 328 326 326 325 324 324 324 324 324 324 324 325 324 325 323 323 322 322 321 320 320 320 320 319 319 319 320 318 319 319 318 319 318 319 319 318 320 321 320 320 321 322 319 323 326 328 331 332 331 330 329 329 327 326 325 327 326 324
327 328 328 328 331 333 334 335 336 336 336 335 332 331 331 331 332 332 331 330 331 330 330 331 330 329 329 328 325 325 325 324 325 325 324 322 323 324 323 323 323 323 322 321 322 319 319 319 319 319 318 317 317 317 318 318 317 317 318 317 318 318 318 320 319 318 319 320 320 320 321 325 327 331 332 332 330 330 330 329 328 326 326 325 324
328 328 329 329 331 333 333 334 336 336 336 335 333 332 331 331 332 331 332 330 331 331 330 329 329 330 328 328 328 326 326 324 324 324 324 323 323 323 323 322 321 321 321 319 319 319 318 317 318 317 317 317 316 318 317 317 317 316 316 316 316 318 318 317 317 318 319 320 322 321 318 322 326 330 331 331 332 332 331 330 329 329 328 327 325
328 328 329 329 330 332 332 333 334 334 335 334 333 333 333 332 331 332 333 331 330 331 329 329 329 328 329 329 328 327 325 326 324 324 324 323 322 324 322 321 321 321 320 319 318 318 317 317 318 317 316 316 317 317 317 317 316 318 316 316 317 315 317 318 316 317 318 319 320 320 319 319 324 327 330 331 332 332 331 330 331 330 330 329 327
328 328 329 331 331 332 332 332 333 335 334 334 333 334 333 332 332 333 333 333 332 331 329 329 327 329 329 329 329 328 326 325 326 325 324 323 323 323 323 321 321 321 320 319 318 317 317 317 318 318 318 317 316 315 317 316 315 316 317 317 317 317 316 316 316 317 317 317 319 320 320 319 319 322 325 329 331 331 331 330 331 331 332 331 329
328 329 329 330 330 332 333 334 335 334 334 333 334 333 334 335 333 332 332 335 333 333 330 329 329 328 328 328 327 328 327 325 325 326 325 324 323 323 322 322 323 322 321 319 319 317 317 316 316 317 316 315 315 315 316 315 314 315 314 316 317 317 317 316 316 317 317 318 318 318 320 318 320 316 319 322 328 330 331 331 330 329 330 330 330
328 328 329 329 331 333 334 335 335 335 335 334 333 333 333 333 333 332 332 334 333 332 331 331 331 329 329 328 327 327 326 326 326 325 325 324 323 322 322 321 322 321 321 320 318 317 316 314 315 315 315 315 314 315 314 314 314 313 314 314 314 316 315 316 315 316 316 317 318 318 319 319 318 319 319 318 321 324 329 330 331 330 330 330 331
327 328 329 329 330 332 334 334 333 334 333 334 333 333 333 334 333 332 333 334 334 334 332 333 332 332 331 330 329 327 328 327 327 325 325 324 323 322 322 322 322 321 320 319 319 318 317 316 314 315 313 313 313 314 314 314 313 314 314 314 315 315 314 314 315 315 316 316 317 317 318 318 317 319 319 319 315 318 323 328 330 330 330 330 331
329 329 329 330 330 330 332 331 333 333 334 334 334 334 334 333 334 330 333 333 333 334 333 333 332 332 331 331 330 330 329 328 327 328 325 325 325 323 322 323 322 321 321 318 318 317 316 316 315 314 311 311 312 312 313 312 313 314 313 314 314 313 313 313 314 314 315 316 317 317 318 317 318 317 316 317 318 317 318 320 325 328 330 331 331
329 329 329 329 329 330 330 330 332 333 334 336 335 335 335 334 333 334 334 333 333 334 333 334 332 332 332 330 330 329 329 328 327 328 328 327 324 323 323 323 323 321 319 317 316 317 316 316 315 314 313 311 311 311 311 312 312 313 313 312 313 313 312 313 313 314 315 315 315 316 317 317 317 314 317 317 318 318 317 318 321 324 325 327 330
329 329 330 330 330 330 330 330 331 332 332 334 335 335 335 334 333 333 332 332 332 333 332 332 333 332 332 330 330 329 328 329 329 328 327 327 326 325 325 325 324 323 320 319 318 317 317 316 314 314 314 313 311 311 310 312 313 313 312 311 311 311 312 312 313 310 312 312 314 314 315 316 316 317 317 318 318 318 319 317 317 318 318 320 325
329 329 330 330 330 329 329 329 330 330 330 330 332 333 332 333 334 334 332 332 332 331 331 332 330 332 331 330 330 330 328 329 329 328 326 326 325 325 325 325 324 323 322 320 318 317 316 316 315 314 314 314 312 312 312 312 311 309 309 310 309 310 311 311 312 311 311 312 312 313 315 315 315 316 316 317 318 318 318 318 317 316 317 317 323
328 329 328 329 329 329 329 329 329 330 329 329 329 330 330 329 329 329 330 329 331 329 333 331 332 331 331 330 329 329 329 327 328 328 327 326 325 323 323 324 323 321 321 320 318 317 316 314 314 313 313 313 313 313 312 309 306 305 306 307 307 308 309 309 309 309 309 309 310 310 311 313 313 314 315 316 317 317 317 318 316 318 317 317 317
326 327 327 328 329 329 328 328 329 329 328 327 327 326 326 326 327 327 326 327 329 331 332 333 333 332 331 332 332 329 329 328 328 329 330 326 326 324 323 322 322 321 321 321 320 318 319 318 316 314 313 313 313 311 309 307 306 305 307 306 308 308 308 308 309 309 308 309 309 309 309 309 310 311 313 314 315 315 316 316 317 317 318 318 317
322 325 326 327 328 328 328 329 329 329 328 327 326 326 326 325 324 325 325 326 326 326 328 331 332 333 333 332 331 331 331 331 329 329 328 328 327 326 323 323 324 322 321 321 320 317 319 319 319 316 316 314 313 310 309 308 304 304 304 307 307 308 309 308 308 308 308 308 308 308 308 308 308 309 310 311 313 314 315 315 315 316 317 317 318
320 320 322 325 326 327 327 328 328 329 327 327 326 325 325 326 326 325 326 323 325 328 329 328 331 332 332 332 332 333 333 330 329 327 327 329 329 327 325 325 326 324 321 320 317 316 318 320 319 318 316 314 313 310 310 311 309 307 308 306 305 306 308 306 307 307 307 307 307 307 307 307 308 309 309 310 310 311 313 313 314 315 315 316 316
308 316 319 321 324 325 325 327 327 328 328 326 325 326 326 326 326 324 326 326 323 324 326 325 326 330 331 332 332 332 332 332 331 330 329 329 327 327 327 326 325 322 321 320 319 318 318 318 319 319 317 314 310 309 313 312 311 310 306 305 305 304 304 305 305 307 307 307 307 307 307 307 307 307 308 308 309 310 311 312 312 313 314 314 314
305 309 315 319 323 323 324 325 326 326 327 325 326 326 325 323 324 323 323 323 324 323 322 322 324 324 324 325 328 331 332 330 330 330 328 328 328 327 328 327 325 323 322 321 320 320 319 318 318 318 316 315 313 312 312 313 311 312 311 308 306 302 302 306 308 310 309 306 305 307 305 306 306 307 307 307 309 309 310 310 311 312 312 313 313
304 307 312 316 317 320 323 323 323 325 326 325 326 324 322 321 321 320 319 318 317 318 318 318 320 324 326 327 326 326 327 326 329 331 330 327 328 328 328 327 325 324 323 323 322 321 320 319 319 318 315 315 315 314 314 310 311 310 311 313 313 310 309 310 309 306 308 309 308 306 306 306 306 306 307 307 307 308 308 309 310 310 311 311 311
303 306 308 311 314 316 319 321 321 322 324 324 324 323 319 319 320 321 320 320 317 317 319 319 319 320 321 322 323 326 327 325 325 327 327 329 330 329 329 328 327 327 325 324 322 321 321 320 319 318 317 316 315 313 313 314 308 309 310 310 309 309 310 307 305 307 304 309 311 310 308 308 306 306 306 307 307 307 308 308 308 309 310 310 310
303 303 305 308 310 312 315 317 317 318 320 322 322 322 320 318 317 317 319 318 316 315 319 320 321 322 322 322 322 322 322 323 323 322 323 324 324 326 327 327 326 327 324 324 323 324 323 322 319 319 318 316 316 314 313 314 312 311 308 308 307 308 308 308 308 306 304 302 305 310 310 311 311 308 307 307 307 307 307 307 307 308 308 308 309
303 303 303 306 309 311 313 314 316 316 317 319 319 317 318 317 316 315 316 320 321 320 316 319 320 319 316 317 318 318 320 322 321 320 319 320 320 320 320 321 322 323 321 325 324 323 322 320 319 318 317 317 316 316 315 314 313 313 309 306 307 307 307 307 307 306 303 303 304 306 307 309 309 311 309 309 309 308 308 308 308 307 308 308 308
306 308 307 307 308 310 311 312 313 315 315 315 317 316 316 315 315 315 315 317 317 316 315 314 314 315 313 312 314 317 320 321 322 322 322 323 323 324 323 321 318 320 322 323 323 322 322 322 322 321 320 318 318 316 315 315 314 314 314 312 306 304 305 305 305 305 304 304 302 304 306 306 305 309 310 311 310 310 310 309 308 308 308 308 308
306 307 308 309 309 310 310 311 311 314 313 314 315 315 315 315 317 319 320 319 317 315 314 316 317 316 316 316 317 318 319 317 318 318 319 320 320 319 320 321 321 321 320 322 322 321 321 321 322 320 319 318 317 316 314 313 314 314 313 313 313 312 310 306 306 304 304 302 302 304 306 308 308 308 310 310 311 311 310 309 308 308 307 308 308
Wind_Speed
6 9 7 7 8 8 10 10 10 10 10 9 10 9 9 9 10 11 12 11 10 12 13 14 13 15 14 15 16 16 15 17 17 17 17 17 17 17 16 16 16 16 16 16 18 17 16 17 17 18 18 18 17 18 18 18 18 18 18 17 17 17 17 17 18 18 18 18 18 17 16 16 16 16 16 16 16 17 14 13 10 8 6 11 16
8 9 6 6 8 8 10 10 10 10 10 10 10 10 9 9 9 10 12 12 11 13 13 14 14 14 14 14 15 16 16 17 16 15 16 17 17 17 15 15 15 16 15 16 16 16 16 16 17 17 17 17 17 17 17 17 17 17 17 16 16 15 13 12 13 15 15 16 17 18 18 17 16 16 16 17 17 15 12 12 14 7 6 15 17
9 9 7 6 8 7 9 9 10 10 11 10 9 9 8 7 9 13 13 12 13 14 14 14 15 14 14 15 15 15 16 16 16 16 16 16 16 15 14 15 15 15 15 16 16 16 16 16 16 17 16 17 17 17 17 17 16 16 16 15 14 14 14 14 12 11 14 15 17 18 16 17 16 16 17 17 19 18 16 15 15 14 10 18 17
10 8 7 7 6 6 10 10 10 10 10 9 9 9 8 11 13 13 12 13 13 14 14 14 14 14 14 14 14 15 15 16 15 14 14 15 16 14 13 14 14 15 16 16 17 16 16 15 16 16 16 16 16 17 16 16 16 15 14 13 13 13 12 10 8 5 4 9 18 12 7 6 10 17 18 19 19 19 17 17 16 17 18 17 18
10 8 7 6 5 8 10 10 10 9 10 10 9 8 7 12 13 13 13 14 14 14 14 14 13 14 15 14 14 15 14 14 14 13 15 14 15 15 15 15 15 15 15 16 16 16 16 15 15 15 15 15 15 16 16 15 15 14 13 13 12 11 11 9 8 9 13 15 12 9 6 7 7 14 16 18 17 15 15 17 18 18 17 17 18
9 7 7 7 6 6 9 10 10 10 9 9 8 7 8 9 13 13 13 14 13 13 14 14 13 15 14 13 13 13 14 13 13 12 14 16 15 16 15 14 15 15 16 15 15 16 16 15 15 15 15 14 14 15 15 15 14 13 13 12 12 12 11 10 9 9 10 13 13 7 8 8 7 7 16 17 16 14 16 16 17 15 16 18 17
11 6 7 7 6 6 8 10 11 10 10 9 7 6 6 8 12 12 13 14 13 14 14 14 13 14 14 13 13 13 13 13 12 13 13 14 17 15 14 14 14 15 15 15 16 16 15 15 14 14 15 14 14 14 15 14 14 13 12 12 13 12 11 10 11 11 13 9 6 6 7 7 6 4 13 15 16 16 16 17 17 17 16 16 16
8 7 7 7 6 7 9 10 11 11 10 9 9 8 9 13 14 12 13 13 14 13 13 12 13 13 13 12 12 12 13 13 14 14 13 16 14 13 13 14 13 14 14 15 15 15 15 15 14 14 14 15 14 14 14 14 13 12 12 13 12 12 12 13 12 9 12 8 6 6 5 6 6 4 15 16 15 15 16 16 15 15 14 14 12
9 9 8 7 7 9 8 10 12 11 10 9 9 8 10 11 12 12 12 13 14 13 13 12 14 13 13 13 13 14 13 13 12 12 12 13 12 13 13 14 13 14 14 14 15 15 15 14 14 14 13 14 13 13 13 13 12 11 11 11 12 12 12 12 11 5 7 6 7 7 7 6 6 6 13 17 18 18 16 12 11 13 15 13 12
10 9 9 7 7 8 8 10 12 11 10 9 9 11 11 10 11 11 11 13 13 13 13 13 14 14 13 13 13 13 14 13 12 11 12 13 12 13 13 13 13 13 14 14 13 13 13 13 13 13 13 13 13 13 12 12 11 10 11 11 12 12 11 11 7 7 7 6 6 5 7 8 6 6 12 15 16 16 12 10 9 8 8 11 13
10 8 8 8 8 9 10 11 11 10 9 9 10 10 11 10 10 10 12 13 14 14 14 13 14 13 13 13 12 12 12 14 14 12 12 12 12 12 13 13 13 13 13 12 13 13 13 13 13 13 13 13 12 12 12 12 10 10 11 11 11 10 10 11 11 6 5 6 6 6 9 11 4 4 11 12 13 14 10 9 11 12 11 13 13
10 8 8 7 9 10 11 10 10 10 9 10 10 10 9 8 8 9 10 11 12 14 14 13 12 13 13 12 12 11 11 12 10 9 11 11 12 14 13 12 13 13 13 12 13 13 13 12 13 13 13 12 12 12 11 11 10 10 10 10 10 13 13 11 7 6 6 7 8 8 8 6 3 6 11 11 12 12 10 10 12 12 12 12 11
10 8 9 7 6 10 10 10 9 9 9 10 10 10 9 8 8 8 10 10 12 13 14 13 12 12 12 12 12 10 9 11 11 10 11 10 10 10 11 14 14 13 13 13 13 12 12 12 12 12 12 12 11 12 11 10 10 9 9 9 11 12 12 9 6 7 7 8 6 6 6 6 7 11 11 11 10 11 11 12 12 12 12 11 10
10 9 8 7 6 9 10 9 9 9 9 9 10 10 9 9 9 10 10 11 11 11 12 13 12 12 11 11 11 10 9 10 10 9 12 11 11 11 13 13 13 12 12 12 12 12 11 12 12 12 11 10 11 10 10 9 9 8 8 9 9 10 12 5 6 5 5 6 7 8 7 6 6 11 10 11 12 10 11 11 10 10 9 9 9
10 9 8 8 7 7 10 9 9 9 9 9 9 9 9 9 9 10 9 10 9 9 9 9 11 11 10 10 10 10 9 8 9 10 11 10 9 10 10 12 12 12 13 13 12 12 12 12 12 11 10 10 10 9 9 9 8 7 7 8 8 9 9 5 3 4 5 6 6 7 6 4 8 10 10 8 8 9 9 9 8 8 9 9 9
10 9 9 9 7 7 5 8 10 10 9 8 7 7 8 8 8 8 10 10 9 8 9 10 10 10 10 10 10 10 10 10 10 10 10 11 9 8 9 11 11 12 12 12 12 11 11 11 10 9 9 9 9 8 8 8 7 6 6 6 6 8 11 8 3 4 5 5 5 4 4 3 8 8 6 8 10 9 9 8 6 6 7 8 8
10 8 9 9 9 7 7 5 7 11 9 9 8 8 7 7 7 8 9 10 9 9 9 10 10 10 10 10 9 8 9 11 11 9 10 10 9 8 7 9 9 10 12 12 11 11 10 9 9 8 8 8 8 8 7 7 6 5 5 5 7 8 9 8 2 5 4 4 4 4 5 4 5 5 7 8 6 8 8 7 6 7 6 7 8
7 8 9 9 8 8 7 7 7 6 6 7 8 9 7 8 8 8 9 9 9 8 9 10 10 10 9 8 8 8 10 10 10 10 9 8 9 12 12 13 14 13 12 11 10 9 8 8 8 7 7 7 7 7 7 6 5 5 5 6 7 9 8 9 3 4 3 5 5 4 4 4 6 4 8 7 9 7 5 6 6 7 7 6 6
6 7 8 7 7 8 8 7 6 6 6 5 4 6 9 8 8 8 8 8 8 8 8 10 10 10 9 8 7 9 9 9 9 9 9 9 9 9 11 9 11 11 11 10 9 9 8 8 7 7 6 6 6 6 6 6 6 5 7 7 7 7 8 6 4 3 1 3 5 4 3 1 5 6 3 4 7 7 5 4 3 7 5 6 6
2 6 7 6 7 7 7 6 6 7 6 6 6 5 7 9 8 8 8 8 8 8 8 9 10 9 9 8 8 5 7 7 10 8 10 10 10 8 9 9 9 9 8 8 8 8 7 7 6 6 6 6 6 6 6 6 6 6 7 6 6 6 4 4 4 2 1 5 5 4 3 5 6 5 5 6 6 6 4 2 4 5 4 4 4
3 3 5 5 6 6 7 6 5 8 6 8 7 6 6 9 7 7 8 8 8 8 9 8 8 7 7 8 8 4 4 4 5 5 8 6 8 9 9 9 8 8 8 7 7 7 6 6 6 7 5 5 5 5 5 4 4 5 4 4 5 3 3 3 2 4 3 2 4 4 4 5 5 4 3 3 3 6 4 3 1 3 4 4 4
4 4 3 5 5 6 5 5 6 6 5 7 6 5 6 6 6 5 4 5 5 7 6 4 5 3 6 5 4 4 5 3 4 6 5 5 6 8 8 7 7 7 6 6 6 6 6 5 5 3 0 2 5 2 2 3 2 2 2 3 3 4 4 3 1 1 3 4 4 4 3 3 5 2 1 6 7 4 4 3 2 4 3 1 1
4 4 4 5 6 7 6 6 5 5 5 4 6 6 6 5 6 5 5 6 5 4 3 5 4 4 3 4 5 4 3 4 4 5 5 8 6 7 7 7 7 8 8 8 6 5 5 4 3 1 3 2 2 2 3 3 3 4 3 4 3 4 4 1 2 3 2 5 3 4 2 3 3 3 1 6 4 4 3 2 2 3 3 3 2
6 4 5 4 6 6 6 6 6 6 5 4 7 6 5 5 6 5 5 5 5 3 3 4 3 5 4 5 3 4 5 5 8 11 9 5 5 6 7 7 7 8 9 6 6 5 5 3 2 2 3 3 4 4 6 3 3 3 2 3 4 1 1 2 3 1 0 3 4 4 0 3 3 2 3 3 1 5 3 3 2 3 4 4 3
7 6 5 4 5 5 5 5 5 6 5 5 3 6 6 5 6 6 6 5 6 5 4 4 3 5 5 3 2 3 5 5 4 5 4 5 4 3 3 3 3 3 5 3 4 3 3 2 1 1 3 4 6 2 1 1 1 4 4 1 2 1 1 3 2 0 1 5 5 7 5 3 5 6 5 5 6 6 6 4 6 6 4 4 9
7 6 6 6 6 5 6 4 5 4 5 6 5 3 6 6 5 6 6 5 7 6 3 5 2 3 2 2 4 2 0 6 4 3 4 5 6 5 5 5 4 3 3 3 4 4 4 5 3 4 5 6 1 1 2 2 3 3 3 1 2 3 2 2 1 0 1 3 5 10 7 5 6 8 8 8 8 7 9 8 8 8 6 5 4
7 6 6 5 6 4 5 4 4 5 4 5 6 3 5 2 4 6 5 1 4 6 4 5 5 4 3 1 4 3 3 5 4 4 4 5 6 6 6 5 4 5 4 4 3 3 2 3 5 5 3 1 1 1 1 2 2 3 4 1 1 2 3 4 2 1 1 0 5 11 8 7 7 8 10 11 10 9 8 9 7 8 9 9 11
6 5 5 4 7 6 5 5 4 5 4 3 4 5 4 3 2 5 5 5 2 3 6 5 4 6 3 3 3 4 4 3 4 3 3 1 4 4 4 4 4 4 6 3 3 1 2 3 1 0 1 0 1 0 2 3 3 3 3 3 2 2 3 4 4 2 1 1 3 8 11 8 8 7 9 10 10 11 12 11 10 9 10 15 11
6 5 5 4 6 6 6 6 5 6 5 4 3 3 5 3 3 4 3 3 2 1 2 5 5 6 5 2 3 2 4 3 5 4 4 3 2 2 1 3 4 4 4 1 4 3 2 2 1 1 1 3 3 3 4 3 3 3 4 4 3 3 4 4 4 3 3 3 2 6 10 10 8 7 9 10 12 12 12 12 12 12 12 11 11
7 6 5 4 4 5 6 7 6 6 7 5 5 3 5 5 4 4 4 2 1 3 2 3 6 6 6 4 2 2 2 3 4 5 4 4 2 3 1 1 3 3 4 2 2 3 3 3 2 2 3 4 3 4 5 4 4 4 3 4 3 4 4 4 4 4 4 4 5 4 12 12 12 9 11 11 13 14 14 14 14 14 15 13 13
8 7 7 6 5 6 4 5 6 5 5 5 5 4 4 4 3 3 5 6 5 4 2 1 1 4 6 6 4 2 3 2 3 4 4 4 3 3 3 2 3 3 4 3 3 3 3 3 4 3 3 3 5 4 4 4 4 4 4 4 4 3 4 5 4 4 4 4 4 4 7 13 13 12 10 11 13 15 16 15 15 15 15 16 14
8 8 7 7 6 7 6 4 4 5 5 5 4 4 5 4 4 3 5 6 6 4 3 3 3 1 1 6 4 4 3 3 1 2 3 4 4 4 4 4 4 4 4 4 3 3 2 2 2 2 1 1 3 3 4 4 4 5 4 5 5 4 5 5 4 4 4 4 5 5 4 7 12 13 13 13 13 14 16 17 16 16 17 17 16
5 8 8 8 7 8 8 7 5 5 5 5 5 4 4 4 4 3 2 4 5 5 3 2 3 2 2 2 4 5 4 3 2 1 0 1 3 4 4 4 5 4 4 4 3 3 1 1 1 1 2 3 4 4 4 3 4 5 3 4 5 5 5 5 5 5 5 5 6 6 6 4 6 10 14 14 14 14 15 17 19 17 18 18 18
5 5 7 8 6 6 6 6 8 6 7 5 5 5 4 4 5 5 3 4 5 5 5 3 1 4 4 3 1 2 2 3 2 1 1 1 2 2 3 3 3 3 4 4 3 3 3 3 4 4 5 5 5 5 4 5 5 4 5 5 4 5 5 5 6 6 5 5 5 5 6 6 5 6 7 13 14 14 14 15 18 19 19 20 20
5 4 7 8 7 7 7 6 8 7 7 6 5 5 4 5 5 6 6 3 4 5 5 5 4 3 2 3 2 2 1 2 3 3 2 3 3 3 3 5 3 3 4 4 4 4 5 5 4 4 4 5 5 6 4 6 5 6 6 7 6 6 4 6 5 5 6 5 5 5 6 6 6 6 6 6 10 15 15 14 16 16 19 20 21
7 6 6 7 8 7 8 6 8 8 8 8 5 5 5 4 5 6 5 4 5 5 5 5 5 5 3 1 3 4 2 1 2 1 2 3 4 4 4 4 4 4 5 4 4 4 5 5 4 4 4 5 5 6 5 6 6 6 6 6 6 5 6 6 6 6 6 5 6 6 6 6 6 7 6 6 7 9 15 16 17 16 17 19 21
7 7 7 7 8 8 10 8 10 10 8 9 7 6 6 5 4 5 5 5 5 5 4 4 3 3 4 4 4 3 2 3 3 2 3 3 3 4 4 4 4 4 4 3 4 4 4 4 5 5 5 6 5 5 5 6 6 6 6 5 5 5 5 6 6 6 5 6 6 6 6 6 7 7 7 7 6 6 10 17 17 18 19 19 19
7 7 7 8 8 8 9 9 7 9 7 8 9 7 6 5 5 4 4 5 4 5 5 4 4 4 4 4 3 4 5 6 6 4 5 6 4 4 4 4 4 5 5 5 6 6 6 5 6 5 6 5 5 5 5 5 5 6 6 5 4 4 5 5 6 5 6 6 6 7 7 7 7 7 7 7 7 7 7 9 15 18 18 19 18
7 7 7 7 6 6 7 8 7 8 8 7 7 6 5 4 4 4 4 4 4 4 4 5 6 6 5 5 6 6 6 6 6 7 6 6 5 5 4 4 3 5 5 5 4 5 5 6 6 5 4 6 6 5 6 6 4 3 4 4 4 5 6 5 6 7 7 7 7 8 7 8 8 7 8 8 8 7 8 7 7 7 10 18 17
7 8 7 7 7 5 6 7 6 6 6 5 6 6 6 6 5 4 4 5 5 5 5 5 5 6 6 6 6 6 6 7 7 7 7 7 6 6 7 7 6 4 5 5 5 6 6 5 5 5 5 4 5 6 6 4 3 3 5 6 6 7 7 7 7 7 6 7 8 7 8 8 7 7 8 8 7 7 8 8 8 8 8 12 18
5 7 7 7 8 8 7 9 8 7 7 7 6 6 6 6 5 6 6 5 6 6 7 6 6 5 5 7 8 7 8 9 8 8 7 6 6 6 6 5 5 5 5 7 7 6 6 6 6 5 6 6 5 5 3 1 2 6 6 7 9 8 11 10 10 9 10 10 9 9 9 8 8 8 9 7 7 7 7 8 8 8 8 8 11
6 6 7 8 7 7 7 6 8 7 7 7 7 6 5 6 5 6 5 6 6 6 6 7 7 7 6 5 5 6 6 7 7 6 6 6 6 5 5 5 6 6 7 8 6 6 5 4 3 4 5 7 5 3 3 3 3 6 6 6 5 5 9 10 10 11 11 9 10 10 9 9 10 9 8 8 9 9 9 8 8 8 8 9 9
5 5 5 5 6 6 6 6 7 8 7 7 7 6 5 6 6 6 7 5 5 6 7 6 7 7 7 7 7 6 5 6 7 7 7 6 6 6 6 7 6 6 7 7 5 4 4 5 5 5 5 3 4 2 4 7 6 2 4 4 7 7 2 3 6 10 10 10 9 9 10 9 11 9 8 7 8 9 8 8 9 9 9 10 9
3 5 5 6 6 6 5 6 6 6 7 6 6 5 5 5 6 5 6 6 3 1 1 2 4 6 7 7 6 6 7 7 7 7 7 6 6 7 6 6 7 5 6 6 5 5 4 5 6 7 6 6 3 5 5 5 6 2 5 5 3 2 11 3 5 5 9 12 10 11 8 9 10 9 7 8 9 9 8 8 9 10 10 11 10
4 4 5 5 5 6 5 6 6 6 6 7 6 5 6 5 4 3 3 1 1 2 1 1 0 1 1 3 6 6 6 5 4 6 7 7 7 6 7 6 4 3 3 5 6 6 6 5 6 6 6 7 7 3 3 6 7 7 7 5 4 2 5 6 6 8 6 5 7 9 8 9 9 9 8 9 9 9 8 8 9 9 11 11 10
4 1 2 4 4 5 5 5 4 5 6 6 7 5 5 5 5 5 4 3 3 2 3 3 3 3 5 4 3 3 3 4 4 4 5 5 6 7 6 5 5 5 5 6 7 6 6 6 7 7 6 5 7 7 7 3 8 9 9 8 7 8 8 7 8 9 1 4 5 7 8 9 9 9 8 9 9 9 8 9 9 10 11 11 10
2 1 1 1 2 4 5 5 4 4 5 6 6 6 4 4 5 5 5 5 4 3 3 3 2 1 0 1 4 4 2 1 1 1 1 4 5 5 5 6 7 6 6 6 6 6 6 8 7 7 8 7 5 8 8 6 2 5 6 8 9 8 9 6 7 8 14 2 5 5 4 6 6 8 9 8 10 8 7 8 10 11 11 10 10
3 2 1 0 3 3 4 4 4 4 4 5 6 6 6 4 4 4 5 4 5 2 2 3 2 1 0 2 3 3 2 1 0 1 1 1 0 2 3 3 4 5 5 5 6 6 7 5 4 4 4 5 6 7 8 6 7 6 6 9 9 9 7 8 9 10 11 13 14 7 7 8 9 9 9 8 9 9 9 8 10 11 11 11 10
3 3 2 1 1 3 4 4 4 4 3 5 5 4 4 4 3 3 3 2 1 1 1 3 5 5 4 5 4 4 4 4 3 2 2 1 1 2 2 3 3 3 3 4 4 5 5 5 4 5 5 6 6 8 7 9 8 9 5 5 6 7 6 7 8 6 7 11 16 13 13 5 7 8 7 8 8 9 9 10 11 12 11 11 10
3 4 4 4 3 3 4 4 4 4 3 3 4 4 3 3 3 3 3 2 1 1 3 3 3 3 3 2 3 5 6 6 4 3 3 3 4 4 5 4 4 3 3 3 3 3 3 4 5 6 7 8 6 6 7 7 6 6 4 4 3 3 4 5 6 7 7 9 13 16 12 14 16 10 7 11 9 11 11 11 12 12 11 11 9
4 4 3 4 4 4 4 5 4 5 3 3 4 4 2 3 3 3 3 3 3 3 2 0 1 2 1 2 2 4 3 2 2 2 1 3 3 4 4 4 4 4 5 4 4 3 4 4 4 4 5 6 5 5 6 6 7 6 7 7 8 8 8 8 9 6 7 7 8 13 13 13 13 17 12 7 11 11 10 10 11 11 11 11 10
Wind_Direction
126 114 103 107 97 99 95 96 92 88 89 86 80 75 78 71 80 87 84 82 83 80 76 79 76 75 77 76 77 76 73 72 72 72 69 71 71 67 63 62 64 67 68 68 68 65 65 64 64 65 63 63 64 62 61 61 63 66 67 66 67 70 72 76 77 76 73 71 71 70 71 72 68 69 69 70 68 61 59 63 58 58 54 69 70
121 113 108 96 94 100 100 98 95 91 85 81 82 83 74 65 70 83 83 82 83 84 81 80 81 78 78 81 80 77 74 74 72 72 72 71 71 70 72 72 72 71 68 69 69 69 67 66 64 64 65 64 65 64 62 63 63 64 64 63 63 64 66 66 76 80 78 75 69 65 62 64 70 73 74 71 66 63 72 74 67 55 67 73 65
113 106 100 95 99 105 99 97 97 95 91 83 77 77 70 71 76 82 78 78 82 87 87 84 82 83 81 77 77 76 75 72 70 68 69 74 75 74 74 78 71 69 72 71 70 69 68 66 66 65 65 66 65 64 64 64 65 65 64 63 61 55 52 49 46 57 82 81 72 61 56 64 69 73 75 76 70 64 62 74 76 72 76 78 71
113 105 104 98 94 102 95 91 89 89 90 82 74 71 71 79 85 81 81 80 83 91 91 86 85 85 79 78 79 77 75 74 74 76 77 75 73 73 72 72 77 77 71 70 70 68 65 66 66 66 65 65 66 66 65 65 66 66 64 61 53 48 49 47 41 43 23 53 71 68 60 48 58 67 68 67 67 66 67 69 74 75 71 70 73
108 112 117 113 106 90 96 97 95 90 84 77 66 68 89 94 87 89 85 83 84 89 89 86 84 80 80 77 77 81 79 79 77 73 80 79 79 77 68 69 73 73 75 75 73 69 69 69 70 69 69 69 70 70 68 65 66 64 61 55 50 46 40 33 32 32 63 64 67 71 65 50 48 65 76 75 72 69 70 71 70 70 71 69 69
112 122 121 113 103 100 102 100 98 94 87 83 78 65 72 92 95 87 83 83 86 86 84 84 83 83 83 81 81 83 89 86 83 83 78 80 83 80 77 73 74 77 76 72 69 70 68 67 70 71 72 71 71 70 69 66 66 64 59 51 42 36 25 17 17 24 67 74 69 61 58 57 49 52 70 81 78 75 72 70 69 70 68 67 66
119 116 110 109 107 104 102 102 99 95 87 82 74 59 66 92 87 81 79 87 85 86 85 86 86 85 84 85 88 87 86 87 86 80 79 82 80 77 76 74 74 76 73 80 75 68 67 68 70 71 72 72 70 72 66 63 63 61 55 45 38 26 16 10 12 44 70 69 69 74 73 68 66 55 70 68 71 68 65 63 62 63 64 63 61
116 109 108 109 106 105 102 101 99 94 86 75 64 55 78 83 83 83 80 86 85 85 90 89 85 79 81 85 86 88 90 84 80 81 84 86 83 84 79 75 74 77 85 76 73 71 72 72 71 73 73 73 72 73 73 66 62 59 49 40 32 18 8 1 360 9 75 77 84 77 78 79 67 58 55 60 63 68 64 63 64 64 64 67 63
111 112 107 103 104 105 106 101 95 89 83 76 69 67 83 87 85 83 85 86 87 84 85 89 84 82 82 83 87 88 86 87 87 84 84 85 89 87 86 83 81 73 68 69 72 75 75 77 78 77 76 74 74 73 74 73 65 59 50 40 28 17 7 349 347 44 77 72 73 73 63 51 65 56 55 58 61 61 59 51 45 49 59 56 60
109 111 116 114 113 113 104 100 94 92 89 84 84 80 76 79 95 93 88 90 93 91 90 90 86 84 86 87 92 96 91 90 93 93 86 88 90 86 81 84 82 81 82 82 78 78 77 77 77 76 75 76 77 77 77 76 66 59 51 38 27 15 359 344 354 65 79 78 73 77 78 73 56 61 62 62 65 67 65 65 61 57 67 59 60
107 108 111 112 114 116 110 103 100 99 100 92 87 83 84 82 76 87 104 92 89 89 86 82 86 88 88 88 88 88 92 85 83 82 84 89 90 89 90 86 82 81 81 80 81 81 82 81 82 80 79 78 77 78 76 74 67 59 47 37 22 10 3 18 42 34 49 75 74 75 84 75 65 67 76 74 71 71 66 65 67 58 53 65 65
106 112 111 111 121 118 115 108 107 109 106 101 90 83 85 90 93 94 91 102 96 82 82 85 86 88 86 89 87 90 93 88 86 86 83 79 86 89 90 95 96 90 84 80 78 78 78 79 80 79 76 77 77 76 75 74 64 55 45 29 18 10 9 8 45 40 41 64 79 71 64 63 66 74 69 69 69 66 62 60 57 64 67 67 67
118 117 116 120 121 120 116 112 112 110 108 105 97 88 82 85 90 83 88 92 87 81 86 89 86 86 91 94 95 94 91 89 90 87 88 88 82 86 85 82 79 80 79 77 74 73 74 76 77 78 77 75 76 79 77 73 63 53 41 23 17 12 4 2 43 44 52 50 59 64 60 58 49 60 67 74 70 64 61 61 59 59 63 66 67
119 125 128 124 119 115 114 113 112 110 106 101 98 94 84 79 86 83 83 85 85 95 104 104 99 93 91 91 92 86 72 94 98 91 89 83 73 74 81 85 85 86 86 83 78 78 77 77 79 79 81 78 77 79 81 76 68 54 33 24 16 13 7 355 67 56 64 70 65 66 62 64 66 71 76 74 70 71 66 64 58 56 61 65 66
125 128 126 120 121 122 115 113 110 110 107 104 100 100 94 86 91 92 88 91 97 95 90 84 87 100 100 93 89 82 74 74 100 96 81 76 88 85 86 88 89 87 87 84 82 77 77 78 78 79 82 86 84 82 81 76 71 54 34 21 15 12 10 359 33 58 63 66 70 83 92 85 87 76 65 64 68 66 73 70 69 76 72 65 66
123 127 129 132 129 124 119 114 114 110 104 98 95 92 101 100 95 97 91 76 65 100 105 103 99 98 101 95 88 79 75 75 80 93 92 83 75 79 87 91 93 89 84 82 79 77 78 80 81 79 80 84 89 86 83 82 70 55 29 18 14 11 12 7 43 57 52 84 90 80 83 93 91 78 68 74 74 79 72 65 59 62 69 77 80
123 136 132 134 133 139 130 126 119 111 106 104 98 90 83 90 96 86 87 83 77 75 110 109 108 110 108 94 81 77 76 68 64 75 96 91 83 60 63 90 99 94 85 79 75 78 79 82 82 80 80 80 88 83 81 78 68 49 24 5 13 17 5 6 24 66 60 61 85 91 83 89 89 83 88 92 84 77 72 66 81 75 73 56 56
132 131 129 141 147 141 141 131 131 125 120 111 106 99 89 89 88 86 86 85 77 75 89 105 101 99 92 80 76 69 77 76 67 66 72 71 66 67 74 80 77 77 80 80 80 77 78 78 77 77 80 79 77 78 70 66 60 39 17 7 7 12 359 350 23 71 63 72 84 92 99 123 120 93 92 90 90 85 85 102 74 53 70 86 72
141 133 137 149 146 143 136 144 152 137 144 131 117 106 101 88 88 89 89 80 71 77 84 101 106 105 101 89 84 83 84 81 73 69 70 73 71 65 63 66 85 84 82 81 80 81 81 78 77 80 83 81 71 68 63 52 44 28 17 13 5 358 345 345 356 44 75 111 102 103 102 91 64 78 107 75 71 80 80 16 47 110 67 46 56
132 144 142 148 148 142 140 155 161 150 165 141 129 119 110 99 88 91 91 91 88 85 91 100 106 110 111 113 108 108 107 98 92 79 76 71 70 70 67 73 81 85 85 86 84 85 84 86 85 86 81 80 74 64 57 49 35 23 16 6 3 348 334 342 337 340 331 93 112 109 114 99 98 87 76 110 114 105 82 93 67 86 82 75 72
144 164 144 157 148 138 150 161 166 160 166 137 135 128 125 113 98 93 98 101 101 104 105 103 108 118 125 140 147 148 141 130 113 105 85 78 77 73 72 69 72 86 85 88 92 89 87 82 84 73 92 104 107 95 75 56 40 20 2 353 344 310 282 293 289 319 328 51 105 103 117 142 119 124 149 171 135 118 120 139 105 75 107 141 143
158 172 164 151 148 145 161 159 158 164 142 137 132 130 144 145 131 132 124 117 115 123 129 134 133 140 163 170 190 167 158 161 132 122 112 99 80 86 82 82 81 79 91 101 110 97 90 87 74 78 98 165 150 131 141 133 162 154 268 293 291 269 264 253 279 277 318 63 118 118 119 143 172 205 345 111 125 141 142 159 148 182 139 28 355
171 173 185 165 163 151 169 165 153 157 136 126 125 142 161 166 148 158 143 152 148 164 177 156 168 153 196 207 233 177 143 104 105 108 113 104 109 102 97 97 98 95 91 90 101 105 93 83 71 3 316 334 271 267 217 173 206 228 243 251 229 250 240 11 314 290 44 100 121 133 124 187 226 289 129 150 198 144 170 193 185 112 136 185 172
163 175 172 184 159 157 171 156 160 147 129 126 133 151 167 175 149 161 145 163 149 197 215 164 188 160 202 232 225 107 92 100 109 111 112 109 106 109 116 115 115 118 115 105 107 114 127 115 126 272 293 264 253 239 210 177 194 228 229 243 237 205 16 209 233 247 153 107 143 145 160 252 241 236 252 193 122 137 181 219 219 182 210 221 179
158 167 167 183 171 162 160 150 149 143 144 139 161 161 157 169 157 165 153 167 153 183 209 158 197 158 205 243 99 101 112 127 124 139 150 135 138 140 155 153 151 165 167 159 152 164 163 155 181 225 260 253 234 289 24 335 213 198 220 205 24 39 282 288 262 207 208 144 156 165 201 213 223 203 224 244 180 193 180 206 215 204 247 239 259
146 167 174 180 175 163 155 157 144 145 153 139 174 173 147 167 157 170 150 169 149 168 177 162 155 143 206 268 112 105 155 135 141 169 210 154 159 175 191 195 177 174 196 235 170 171 202 178 176 211 233 230 197 7 6 26 353 335 6 21 16 333 297 284 275 235 265 166 179 178 195 219 241 220 225 240 242 237 186 206 238 277 225 222 252
156 176 172 170 162 161 150 149 150 146 165 154 168 149 144 164 160 148 130 201 133 154 165 158 161 161 188 235 119 146 222 140 162 186 221 163 171 180 193 186 157 158 198 226 162 160 208 188 188 207 233 65 30 6 305 339 335 333 328 341 300 302 316 309 303 256 261 224 183 189 198 215 227 239 242 239 240 244 227 224 247 241 233 213 200
150 175 166 168 158 165 156 149 163 148 162 173 166 146 142 184 149 123 144 171 183 166 160 167 148 150 176 175 205 164 201 162 164 171 226 167 182 184 182 144 158 173 192 209 137 169 218 261 200 205 63 346 250 252 289 227 249 248 276 291 280 271 283 283 285 288 247 255 166 204 206 213 231 239 252 248 247 247 243 242 245 252 235 216 245
152 166 165 172 162 163 165 165 165 159 158 173 184 155 148 179 157 132 146 132 158 187 176 158 146 145 168 203 180 221 182 176 159 175 178 218 191 157 130 151 158 185 164 207 148 187 225 232 202 181 198 231 216 206 235 259 230 239 226 252 239 249 263 275 275 283 293 266 176 204 213 218 229 239 246 248 251 255 252 255 259 255 246 252 256
163 161 160 186 168 161 168 172 167 172 165 168 183 161 159 174 171 150 152 135 163 250 195 178 169 159 160 179 181 256 223 184 167 172 170 192 178 153 150 173 163 177 148 205 183 172 204 214 219 209 219 227 230 222 206 224 230 240 242 225 245 234 242 250 263 259 258 260 245 205 211 214 221 227 235 243 245 249 261 260 253 249 250 241 246
158 164 168 180 169 160 176 172 173 168 158 166 178 178 158 165 183 170 158 159 185 236 223 235 181 163 169 163 167 195 287 278 161 176 171 165 168 151 189 208 171 186 159 193 195 185 202 188 192 212 223 229 232 237 202 227 246 231 233 230 239 244 251 253 258 257 249 250 250 226 207 218 221 225 234 240 245 250 257 257 255 252 252 254 252
163 174 167 170 162 162 165 180 175 164 161 174 174 180 164 174 187 193 163 169 168 197 209 200 219 247 123 157 163 172 223 286 262 169 170 160 177 175 189 194 197 193 167 186 188 184 208 216 192 195 251 258 268 262 216 205 245 243 222 223 227 233 247 252 252 253 251 249 247 252 209 216 223 226 230 236 245 251 254 256 252 250 250 253 253
183 167 167 166 172 163 163 177 191 169 176 180 173 180 168 164 165 194 188 156 161 166 225 212 187 155 265 159 172 162 171 231 267 176 138 177 184 187 187 196 200 186 173 183 169 170 225 246 226 171 274 289 292 283 280 236 240 263 259 239 212 223 235 246 250 249 248 243 249 252 255 216 220 228 229 232 238 242 248 252 254 255 255 254 253
183 169 162 172 168 160 160 168 188 190 178 187 171 171 178 166 168 173 210 160 157 166 191 244 206 174 203 225 127 125 145 190 244 224 149 255 269 201 189 209 204 195 170 161 159 174 202 217 225 187 221 231 243 252 260 267 257 257 264 260 225 225 226 232 237 241 242 245 239 241 243 250 227 214 226 233 232 235 239 247 252 254 254 255 253
176 174 173 172 167 157 160 174 176 188 171 188 186 172 179 175 167 179 187 178 171 171 184 189 217 205 183 175 161 144 167 251 218 227 201 187 244 238 204 215 204 190 162 165 169 197 205 218 210 207 218 223 229 237 235 240 242 242 241 240 235 231 228 231 234 239 240 244 243 243 243 240 244 242 219 219 233 233 233 238 245 249 252 253 256
182 183 175 166 173 166 164 175 171 182 178 184 186 178 181 180 172 177 185 181 184 183 178 190 194 186 184 173 163 158 157 314 331 230 207 210 213 233 226 203 205 174 163 170 179 207 215 218 221 199 220 234 222 239 233 242 240 244 243 238 233 223 230 235 238 241 240 236 239 245 245 242 241 238 239 226 223 227 230 232 237 242 246 249 250
181 176 177 173 175 175 166 176 172 183 181 178 183 186 185 193 188 177 182 180 185 187 185 168 178 184 173 168 138 129 115 292 312 322 321 284 260 235 240 213 194 171 169 181 192 216 225 219 227 222 205 226 225 240 245 239 244 242 245 246 238 231 231 231 233 235 243 238 237 239 244 246 242 239 237 240 237 231 227 229 231 236 240 241 245
180 178 179 180 185 175 171 176 173 180 186 180 183 186 187 186 196 186 179 184 189 180 182 177 179 173 152 165 156 161 175 191 208 245 262 255 249 245 243 239 194 171 178 195 211 211 217 212 230 230 218 220 235 243 256 255 248 247 247 250 260 252 248 248 246 247 238 240 237 237 237 238 239 238 236 235 236 236 239 228 231 236 237 238 239
179 180 177 179 183 171 164 171 175 173 180 177 172 174 176 188 188 188 178 195 193 187 190 184 187 178 173 177 176 181 190 197 200 210 216 223 231 247 263 268 228 197 201 212 224 225 226 222 218 233 226 214 217 228 237 247 263 282 281 277 273 262 266 256 249 243 242 243 243 243 241 240 239 236 236 233 231 231 232 235 228 227 237 236 237
173 179 178 175 180 175 161 168 177 169 166 170 162 168 174 186 191 193 198 186 191 194 206 207 192 189 179 178 184 184 187 196 206 212 212 209 206 213 222 229 223 206 213 224 229 225 226 233 238 222 238 250 233 235 242 250 289 300 283 281 264 265 264 257 252 242 243 245 246 244 243 243 238 238 237 235 233 229 229 230 229 230 228 234 234
178 175 180 178 178 183 167 174 178 171 167 170 172 169 173 177 180 190 196 191 195 191 196 206 215 209 190 187 188 192 195 200 207 209 216 214 211 209 210 214 209 216 225 230 229 228 222 217 224 215 227 247 255 233 240 114 330 298 284 267 270 250 249 245 244 244 239 241 242 244 246 249 245 244 243 242 242 237 233 231 231 232 234 233 237
201 184 186 185 178 179 178 172 168 178 177 175 171 174 173 174 171 187 187 195 192 194 201 196 203 208 209 210 204 193 194 202 199 203 214 220 221 219 210 207 206 213 220 226 223 218 217 214 212 242 215 223 245 202 204 108 250 238 288 297 276 261 243 234 235 239 240 242 240 239 242 242 243 241 242 241 241 239 239 235 236 237 238 241 242
189 196 189 177 180 184 180 177 169 174 180 176 170 174 170 178 176 187 187 202 198 191 198 198 186 187 195 205 213 219 212 207 207 211 216 222 222 214 219 225 221 212 220 225 218 223 220 227 230 235 259 241 241 208 189 180 246 198 231 286 289 307 271 251 249 250 241 240 238 238 239 239 242 237 238 240 243 242 239 235 236 238 242 243 245
198 191 190 182 181 185 181 175 176 165 173 179 170 169 171 181 188 178 179 167 181 179 125 150 152 167 191 195 198 204 210 210 206 208 214 222 223 228 233 227 228 205 204 215 219 232 227 234 236 237 229 258 221 249 209 194 208 253 295 211 275 3 305 272 262 256 228 234 228 235 229 238 240 243 242 238 239 238 238 230 234 236 241 243 243
212 194 184 180 175 181 184 176 172 169 164 168 170 169 166 170 165 124 73 60 64 65 47 338 275 172 176 178 202 196 205 209 206 202 201 216 225 231 234 231 221 207 198 220 232 232 230 229 230 234 216 228 253 262 243 199 207 201 234 296 303 272 232 284 339 282 218 236 242 235 233 239 237 236 233 239 240 238 236 235 236 238 240 241 242
190 225 162 164 154 167 170 171 167 160 161 163 166 160 158 156 141 149 171 166 204 153 177 193 220 213 214 220 214 183 190 202 199 197 200 214 225 231 233 234 228 229 222 222 228 229 229 226 216 210 224 219 235 246 260 211 213 208 219 228 228 267 301 301 336 301 337 238 246 218 231 236 235 238 232 237 239 240 230 238 238 243 243 241 240
199 149 94 132 133 150 154 159 159 153 150 153 156 148 164 169 168 172 169 177 186 221 184 170 160 204 170 178 191 199 206 192 239 214 206 202 225 234 232 233 233 233 226 222 223 222 224 223 210 202 213 221 215 248 250 256 247 247 233 236 248 250 251 279 272 307 299 264 212 275 257 250 250 243 241 234 241 240 237 234 241 243 245 243 243
107 79 88 28 142 156 142 148 141 142 140 143 146 155 167 181 178 179 176 174 170 194 178 218 163 83 53 19 42 42 50 70 19 338 331 357 224 248 248 244 245 246 239 230 228 231 238 250 244 238 242 226 223 234 251 242 239 250 204 232 240 248 253 256 254 261 278 297 291 267 254 262 264 249 245 240 242 238 242 236 241 244 245 244 243
132 140 161 175 98 105 119 122 123 121 124 130 138 146 146 163 164 143 121 119 121 201 49 57 65 46 37 18 25 16 10 358 7 7 15 359 328 272 274 291 283 272 247 255 254 258 255 245 241 236 228 229 217 226 232 238 227 245 229 241 239 244 246 245 259 249 259 282 283 286 291 260 239 253 259 243 239 239 236 241 241 244 246 247 244
93 105 131 144 122 106 111 111 110 104 122 116 125 132 129 126 128 123 128 138 225 80 72 51 68 61 38 17 18 11 354 338 324 11 8 354 342 346 344 337 325 309 306 290 297 285 264 255 247 243 243 243 240 240 241 257 256 261 248 252 221 254 262 263 245 242 252 241 266 288 290 295 292 275 234 262 243 246 246 241 245 248 248 250 248
122 108 92 114 133 124 116 93 90 111 116 119 119 137 119 107 135 148 156 152 149 106 84 50 55 49 289 273 255 228 216 272 333 353 21 344 336 340 327 320 324 326 323 328 313 302 293 274 260 261 261 258 257 251 248 245 249 256 255 247 249 242 243 244 246 220 227 251 271 276 284 281 282 293 280 237 255 247 236 239 240 246 244 250 246